www.pogodaiklimat.ru

Погода и климат >> Архив погоды >> Россия >> Забайкальский край >> Менза


ПОГОДА в Мензе

  • Прогноз погоды в Мензе
  • Монитор погоды в Мензе

АРХИВ ПОГОДЫ в Мензе

Время (UTC), дата Ветер
(напр.,м/с)
 
Видим.   Явления Облачность Т
(С)
Тd
(С)
f
(%)
Тe
(С)
Тes
(С)
Комфортность P
(гПа)
Po
(гПа)
Тmin
(С)
Tmax
(С)
R
(мм)
R24
(мм)
S
(см)
18 17.06 Ю 1 50 км 1/0
[Ci fib]
+7.8 +6.3 90 +7 +7 1014.3 906.7
21 17.06 штиль 0 50 км ясно +4.6 +3.9 95 +3 +3 1017.2 908.0
00 18.06 штиль 0 50 км ясно +13.1 +8.4 73 +13 +20 1012.5 907.0 +4.6
03 18.06 штиль 0 50 км 3/3 1000 м
[Cb cap]
+23.2 +11.6 48 +26 +42 жарко 1008.3 906.7
06 18.06 штиль 0 50 км 4/4 1000 м
[Cb cap]
+28.8 +0.5 16 +26 +40 жарко 1005.1 905.3
09 18.06 СЗ 4 50 км 8/4 1000 м
[Cb cap Ac trans Ci fib]
+28.1 +8.4 29 +28 +29 жарко 1003.7 904.0
12 18.06 СЗ 3 50 км 6/3 1000 м
[Cb cap Ac trans Ci fib]
+23.0 +8.9 41 +24 +25 комфорт 1006.7 905.1 +29.1
15 18.06 В 1 50 км 3/0
[Ac trans Ci fib]
+13.0 +9.8 81 +13 +13 1013.6 908.0
18 18.06 штиль 0 50 км 7 баллов +8.9 +7.7 92 +8 +8 1015.3 908.0
21 18.06 штиль 0 50 км 8/0
[Ac trans Ci fib]
+7.3 +6.4 94 +6 +6 1017.4 909.3
00 19.06 З 1 50 км 6/0
[Ac trans Ci fib]
+14.2 +9.7 74 +15 +20 1013.6 908.4 +7.1
03 19.06 З 1 50 км 6/3 1000 м
[Cu med, cong Ac trans]
+22.3 +12.5 54 +25 +32 комфорт 1010.0 908.0
06 19.06 В 1 50 км 8/8 1000 м
[Cu med, cong]
+27.3 +8.7 31 +27 +33 жарко 1005.4 905.3
09 19.06 СЗ 4 50 км 3/3 1000 м
[Cu hum]
+28.9 +2.2 18 +27 +31 жарко 1003.6 904.0
12 19.06 З 2 50 км 3/0
[Ci fib]
+24.7 +5.8 30 +25 +25 комфорт 1004.2 903.4 +29.0
15 19.06 ЮВ 1 50 км 8/0
[Ac trans Ci fib]
+11.1 +7.4 78 +11 +11 1013.0 906.7
18 19.06 штиль 0 50 км 8/0
[Ac As Ci fib]
+6.5 +5.0 90 +6 +6 1016.3 908.0
21 19.06 ЮЗ 1 50 км 6/0
[Ci fib]
+3.7 +2.7 93 +2 +2 1017.6 908.0
00 20.06 штиль 0 50 км 5/0
[Ci fib]
+12.5 +6.3 66 +12 +19 1013.7 907.9 +3.5
03 20.06 СЗ 1 50 км 3/1 1000 м
[Cu med, cong Ci fib]
+21.7 +8.9 44 +23 +38 комфорт 1008.9 906.7
06 20.06 СВ 2 50 км 6/4 1000 м
[Cu med, cong Ac trans]
+30.1 +8.5 26 +29 +36 жарко 1004.5 905.3
09 20.06 С 4 50 км 8/5 1000 м
[Cb cap Ac trans]
+28.8 +9.5 30 +29 +30 жарко 1004.9 905.3
12 20.06 Ю 2
{10}
50 км 10/0
[Ac As]
+22.3 +14.3 61 +26 +26 жарко 1007.9 906.2 +30.9
15 20.06 ЮВ 1 50 км 1/0
[Ci fib]
+13.2 +10.6 84 +13 +13 1015.0 909.3
18 20.06 Ю 1 50 км 1/0
[Ci fib]
+9.4 +8.3 93 +9 +9 1018.1 910.7
21 20.06 ЮВ 1 50 км 3/0
[Ci fib]
+7.5 +6.8 95 +6 +6 1018.9 910.7
00 21.06 штиль 0 50 км 6/0
[Ci fib]
+14.3 +10.4 77 +14 +21 1015.3 910.0 +7.2
03 21.06 штиль 0 50 км 6/1 1000 м
[Cu med, cong Ci fib]
+23.5 +12.2 49 +25 +34 комфорт 1011.1 909.3
06 21.06 СВ 1 50 км 5/4 1000 м
[Cb cap Ci sp]
+30.9 +6.7 22 +29 +39 жарко 1005.8 906.7
09 21.06 С 1 50 км 6/5 1000 м
[Cb cap Ci sp]
+31.7 +8.0 23 +31 +34 жарко 1003.9 905.3
12 21.06 С 2 50 км 8/4 1000 м
[Cb cap Ac trans Ci fib]
+26.6 +14.0 46 +29 +29 жарко 1005.1 905.0 +33.3
15 21.06 Ю 1 50 км 8/3 1000 м
[Cb cap Ac trans Ci fib]
+16.1 +12.8 81 +17 +17 1010.9 906.7
18 21.06 Ю 1 50 км 5/0
[Ac trans Ci fib]
+12.3 +10.5 89 +12 +12 1012.4 906.7
21 21.06 штиль 0 50 км 8/0
[Ac trans Ci fib]
+8.3 +7.2 93 +7 +7 1015.6 908.0
00 22.06 штиль 0 50 км 8/0
[Ac trans Ci fib]
+15.4 +11.6 78 +15 +20 1010.4 906.0 +8.3
03 22.06 С 1 50 км 9/3 1000 м
[Cu med, cong Ac As]
+25.1 +13.6 49 +27 +29 жарко 1006.0 905.3
06 22.06 С 3 50 км 10/3 1000 м
[Cu med, cong Ac As]
+31.7 +9.2 25 +31 +31 жарко 1002.4 904.0
09 22.06 СЗ 3 50 км 7 баллов +32.2 +7.1 21 +31 +32 жарко 1002.3 904.0
12 22.06 Ю 3
{16}
50 км в посл. час ливневой дождь {гроза} 9/8 1000 м
[Cb calv Ac lent]
+22.4 +11.6 50 +25 +25 комфорт 1005.0 903.5 +32.4 0.4
15 22.06 штиль 0 50 км 10 баллов +15.1 +12.4 84 +15 +15 1009.7 905.3
18 22.06 ЮВ 1 50 км 7 баллов +12.5 +10.6 88 +12 +12 1010.8 905.3
21 22.06 штиль 0 50 км 7 баллов +8.6 +7.4 92 +8 +8 1011.0 904.0
00 23.06 штиль 0 50 км 8/3 1000 м
[Cu med, cong As op Ci fib]
+15.3 +11.2 77 +15 +18 1007.5 903.4 +8.3
03 23.06 ЮВ 1 50 км 7 баллов +23.4 +12.7 51 +26 +32 жарко 1003.7 902.7
06 23.06 СВ 4 50 км 7 баллов +30.8 +10.2 28 +31 +34 жарко 998.3 900.0
09 23.06 С 3 50 км в посл. час гроза 9 баллов +29.7 +11.2 32 +30 +31 жарко 998.6 900.0
12 23.06 Ю 2 50 км {гроза} 8/4 1000 м
[Cb cap Ac trans]
+24.3 +13.5 51 +27 +27 жарко 1001.4 900.9 +32.2
15 23.06 З 1 50 км гроза, ливневой дождь 9 баллов +17.5 +14.6 83 +19 +19 1007.2 904.0
18 23.06 Ю 1 50 км 4 балла +14.0 +12.2 89 +14 +14 1008.7 904.0
21 23.06 штиль 0 50 км 2 балла +8.9 +8.1 95 +8 +8 1010.8 904.0
00 24.06 В 1 50 км 10/10 1000 м
[St]
+13.5 +11.7 89 +14 +14 1008.9 904.0 +8.9
03 24.06 С 1 50 км 7 баллов +22.0 +14.1 61 +25 +31 комфорт 1005.6 904.0
06 24.06 СЗ 1 50 км 4 балла +27.3 +12.9 41 +29 +41 жарко 1000.8 901.3
09 24.06 СВ 3 50 км 5 баллов +29.5 +8.5 27 +29 +32 жарко 997.3 898.7
12 24.06 В 1 50 км 8/3 1000 м
[Cu med, cong Ac trans Ci fib]
+22.8 +11.5 49 +25 +25 комфорт 999.1 898.3 +29.6
15 24.06 ЮВ 1 50 км 10 баллов +17.0 +13.1 78 +18 +18 1001.6 898.7

 

Местоположение метеостанции Менза (Забайкальский край, Россия): широта 49.43 долгота 108.80 высота над уровнем моря 936 м.

В архиве по умолчанию представлена погода в Мензе за последнюю неделю. Архивные данные за месяц целиком и за предыдущие месяцы, начиная с января 2011 года, Вы можете получить, выбрав интересующий диапазон дат из раскрывающегося списка и нажав кнопку "Ввод!".


*Определитесь, кто Вы:
робот инопланетянин человек

Внимание! Время в таблицах - всемирное. Для получения местного времени необходимо прибавить поправку, которая равна 9 ч.

Смотрите также архив погоды в соседних городах и на ближайших метеорологических станциях:

Погода в Улыгайин Дуганг (Монголия) (89 км)
Погода в Красном Чикое (Забайкальский край, Россия) (105 км)
Погода в Хадатыне (Монголия) (116 км)
Погода в Черемхово (Забайкальский край, Россия) (158 км)
Погода в Биндэре (Монголия) (159 км)
Погода в Бичуре (Бурятия, Россия) (160 км)
Погода в Букукуне (Забайкальский край, Россия) (166 км)
Погода в Мухоршибири (Бурятия, Россия) (192 км)
Погода в Кяхте (Бурятия, Россия) (201 км)
Погода в Татаале (Монголия) (203 км)

Пояснения к столбцам:

Ветер - указаны скорость ветра в м/с - средняя за 10 мин, порывы в срок и между сроками (в фигурных скобках) и направление, откуда дует ветер: С - северный, СВ - северо-восточный, В - восточный, ЮВ - юго-восточный, Ю - южный, ЮЗ - юго-западный, З - западный, СЗ - северо-западный.
Видимость - горизонтальная дальность видимости в метрах или километрах. При видимости от 1 до 10 км при отсутствии осадков обычно наблюдается дымка, при ухудшении видимости до 1 км и менее - туман. В сухую погоду видимость может ухудшаться дымом, пылью или мглою.
Явления - указаны атмосферные явления, наблюдавшиеся в срок или в последний час перед сроком; фигурными скобками обозначены явления, наблюдавшиеся между сроками (за 1-3 часа до срока); квадратными скобками обозначены град или гололедные отложения с указанием их диаметра в мм.
Облачность - указаны через наклонную черту общая и нижняя облачность в баллах и высота нижней границы облаков в метрах; квадратными скобками обозначены формы облаков: Ci - перистые, Cs - перисто-слоистые, Cc - перисто-кучевые, Ac - высококучевые, As - высокослоистые, Sc - слоисто-кучевые, Ns - слоисто-дождевые, Cu - кучевые, Cb - кучево-дождевые. Подробнее классификацию облаков см. в Атласе облаков (PDF).
T - Температура воздуха - температура, измеренная на высоте 2 м над землей.
Td - Температура точки росы - температура, при понижении до которой содержащийся в воздухе водяной пар достигнет насыщения.
f - Относительная влажность воздуха - влажноcть воздуха, измеренная на высоте 2 м над землей.
Te - Эффективная температура - температура, которую ощущает одетый по сезону человек в тени. Характеристика душности погоды. При расчете учитывается влияние влажности воздуха и скорости ветра на теплоощущения человека.
Tes - Эффективная температура на солнце - температура, которую ощущает человек, с поправкой на солнечный нагрев. Характеристика знойности погоды. Зависит от высоты солнца над горизонтом, облачности и скорости ветра. Ночью, в пасмурную погоду, а также при ветре 12 м/с и более поправка равна нулю.
P - Атмосферное давление - приведенное к уровню моря атмосферное давление.
Po - Атмосферное давление - измеренное на уровне метеостанции атмосферное давление.
Tmin - Минимальная температура - минимум температуры воздуха на высоте 2 м над землей.
Tmax - Максимальная температура - максимум температуры воздуха на высоте 2 м над землей.
R - Количество осадков - Количество выпавших осадков за период времени, мм. При наведении курсора мыши на число - период времени, за который выпало указанное количество осадков.
R24 - Количество осадков - Количество выпавших осадков за 24 часа, мм.
S - Снежный покров - Высота снежного покрова, см. При наведении курсора мыши на число - состояние снежного покрова и степень покрытия местности в баллах.